This is the latest recevied weather packets stored in our database for station/object KF4ERV-4. If no packets are shown the sender has not sent any weather packets the latest 10 day(s).
| Time | Temp. | Humidity | Pressure | Rain* | Wind** | Luminosity | Snow |
|---|---|---|---|---|---|---|---|
| 1787366673 | 24.44° C | 21% | 1016.9 hPa | 0 mm | - | - | - |
| 1787366441 | 24.44° C | 32% | 1016.9 hPa | 0 mm | - | - | - |
| 1787366206 | 24.44° C | 36% | 1017 hPa | 0 mm | - | - | - |
| 1787366150 | 24.44° C | 36% | 1017 hPa | 0 mm | - | - | - |
| 1787365771 | 24.44° C | 38% | 1016.8 hPa | 0 mm | - | - | - |
| 1787365570 | 24.44° C | 38% | 1016.6 hPa | 0 mm | - | - | - |
| 1787365462 | 24.44° C | 38% | 1016.6 hPa | 0 mm | - | - | - |
| 1787365164 | 24.44° C | 40% | 1016 hPa | 0 mm | - | - | - |
| 1787364701 | 25° C | 45% | 1015.9 hPa | 0 mm | - | - | - |
| 1787364573 | 25° C | 45% | 1015.9 hPa | 0 mm | - | - | - |
| 1787364411 | 25° C | 51% | 1016 hPa | 0 mm | - | - | - |
| 1787364120 | 25° C | 53% | 1015.9 hPa | 0 mm | - | - | - |
| 1787363830 | 25° C | 60% | 1016.1 hPa | 0 mm | - | - | - |
| 1787363668 | 25° C | 60% | 1016.1 hPa | 0 mm | - | - | - |
| 1787363371 | 25.56° C | 63% | 1016 hPa | 0 mm | - | - | - |
| 1787362962 | 25.56° C | 68% | 1016 hPa | 0 mm | - | - | - |
| 1787362382 | 26.11° C | 72% | 1016.1 hPa | 0 mm | - | - | - |
| 1787362090 | 26.11° C | 73% | 1015.9 hPa | 0 mm | - | - | - |
| 1787361869 | 26.11° C | 73% | 1015.9 hPa | 0 mm | - | - | - |
| 1787361800 | 26.67° C | 74% | 1015.9 hPa | 0 mm | - | - | - |
| 1787361575 | 26.67° C | 74% | 1015.9 hPa | 0 mm | - | - | - |
| 1787361223 | 26.67° C | 76% | 1015.9 hPa | 0 mm | - | - | - |
| 1787360968 | 26.67° C | 76% | 1015.9 hPa | 0 mm | - | - | - |
| 1787360930 | 26.67° C | 76% | 1015.8 hPa | 0 mm | - | - | - |
| 1787360668 | 26.67° C | 76% | 1015.8 hPa | 0 mm | - | - | - |
* Rain latest hour (hover to see other rain measurements)
** Current wind speed in m/s (hover to see current wind gust speed)